Wetterdaten: Jahr 2018
Datum Temp. A. Feuchte A. Luftdruck Regen Wind Richtung Sonnenschein UV Solar Windben
01.01.2018 6,8 C 79 % 998,8 hPa 1,8 l/m 7,8 km/h SW 2,48 h 0,7 UV-I 96 W/m 17,0 km/h
02.01.2018 5,8 C 84 % 1007,8 hPa 5,6 l/m 9,5 km/h W-SW 0,08 h 0,6 UV-I 47 W/m 17,4 km/h
03.01.2018 6,8 C 86 % 990,8 hPa 17,2 l/m 19,4 km/h W-SW 0,00 h 0,6 UV-I 28 W/m 33,9 km/h
04.01.2018 8,7 C 79 % 992,6 hPa 0,8 l/m 16,3 km/h W-SW 0,00 h 0,5 UV-I 43 W/m 30,3 km/h
05.01.2018 8,0 C 79 % 997,5 hPa 0,0 l/m 8,6 km/h W-SW 1,50 h 0,7 UV-I 92 W/m 20,8 km/h
06.01.2018 6,0 C 83 % 1011,0 hPa 0,0 l/m 1,6 km/h S-SO 0,37 h 0,6 UV-I 63 W/m 5,7 km/h
07.01.2018 2,3 C 84 % 1027,1 hPa 0,0 l/m 9,0 km/h NO 0,00 h 0,6 UV-I 53 W/m 19,4 km/h
08.01.2018 3,1 C 80 % 1024,5 hPa 0,0 l/m 12,0 km/h O-NO 3,08 h 0,7 UV-I 102 W/m 29,1 km/h
09.01.2018 5,8 C 83 % 1011,8 hPa 0,0 l/m 7,4 km/h O 0,00 h 0,5 UV-I 61 W/m 17,8 km/h
10.01.2018 7,1 C 81 % 1010,5 hPa 0,0 l/m 3,7 km/h O 1,75 h 0,7 UV-I 89 W/m 8,9 km/h
11.01.2018 6,4 C 90 % 1018,2 hPa 0,0 l/m 2,6 km/h W 0,08 h 0,5 UV-I 58 W/m 5,7 km/h
12.01.2018 5,0 C 93 % 1026,2 hPa 0,0 l/m 2,0 km/h O-NO 0,00 h 0,0 UV-I 25 W/m 4,9 km/h
13.01.2018 3,9 C 84 % 1025,7 hPa 0,0 l/m 9,2 km/h O-NO 1,67 h 0,7 UV-I 87 W/m 18,6 km/h
14.01.2018 2,1 C 72 % 1022,2 hPa 0,0 l/m 6,0 km/h O 5,75 h 0,8 UV-I 144 W/m 17,0 km/h
15.01.2018 4,0 C 80 % 1002,0 hPa 0,8 l/m 12,8 km/h O-SO 0,50 h 0,6 UV-I 70 W/m 23,4 km/h
16.01.2018 3,6 C 87 % 992,2 hPa 11,0 l/m 9,7 km/h SW 0,17 h 0,6 UV-I 38 W/m 21,4 km/h
17.01.2018 2,0 C 92 % 1000,9 hPa 9,2 l/m 9,5 km/h W-SW 0,00 h 0,6 UV-I 36 W/m 21,8 km/h
18.01.2018 3,8 C 85 % 996,9 hPa 2,2 l/m 19,1 km/h W-SW 0,00 h 0,5 UV-I 33 W/m 31,1 km/h
19.01.2018 1,5 C 93 % 1007,6 hPa 4,2 l/m 6,1 km/h SW 0,00 h 0,6 UV-I 47 W/m 13,4 km/h
20.01.2018 2,1 C 91 % 1002,7 hPa 2,8 l/m 3,3 km/h SW 2,17 h 0,8 UV-I 113 W/m 6,9 km/h
21.01.2018 1,9 C 91 % 1014,1 hPa 2,4 l/m 3,4 km/h W-SW 0,08 h 0,6 UV-I 49 W/m 8,1 km/h
22.01.2018 5,1 C 93 % 1009,9 hPa 1,6 l/m 10,6 km/h W-SW 0,00 h 0,0 UV-I 25 W/m 18,2 km/h
23.01.2018 7,9 C 84 % 1020,0 hPa 0,2 l/m 7,8 km/h SW 0,00 h 0,6 UV-I 69 W/m 17,0 km/h
24.01.2018 12,4 C 75 % 1013,0 hPa 0,0 l/m 11,2 km/h S-SW 2,00 h 0,9 UV-I 102 W/m 27,5 km/h
25.01.2018 7,8 C 87 % 1012,4 hPa 2,0 l/m 4,1 km/h S-SW 0,00 h 0,5 UV-I 58 W/m 9,7 km/h
26.01.2018 6,9 C 90 % 1020,5 hPa 0,0 l/m 0,9 km/h W-SW 0,75 h 0,7 UV-I 80 W/m 2,1 km/h
27.01.2018 6,8 C 77 % 1028,6 hPa 0,0 l/m 6,1 km/h SW 1,42 h 0,7 UV-I 94 W/m 17,8 km/h
28.01.2018 9,2 C 88 % 1028,1 hPa 0,0 l/m 15,4 km/h W-SW 0,00 h 0,5 UV-I 33 W/m 26,7 km/h
29.01.2018 8,7 C 85 % 1023,2 hPa 2,6 l/m 19,5 km/h W-SW 0,00 h 0,5 UV-I 24 W/m 32,3 km/h
30.01.2018 4,6 C 82 % 1025,7 hPa 0,0 l/m 7,9 km/h W-SW 0,58 h 0,7 UV-I 82 W/m 15,4 km/h
31.01.2018 6,8 C 88 % 1002,7 hPa 6,8 l/m 10,2 km/h SW 0,08 h 0,6 UV-I 55 W/m 23,5 km/h
01.02.2018 2,6 C 85 % 1000,3 hPa 2,0 l/m 9,3 km/h SW 1,75 h 0,8 UV-I 108 W/m 19,0 km/h
02.02.2018 3,6 C 91 % 1003,1 hPa 1,8 l/m 8,1 km/h SW 0,00 h 0,5 UV-I 31 W/m 16,6 km/h
03.02.2018 1,6 C 91 % 1006,3 hPa 1,0 l/m 3,1 km/h W 0,00 h 0,6 UV-I 54 W/m 8,6 km/h
04.02.2018 -1,2 C 87 % 1021,6 hPa 0,0 l/m 2,0 km/h W-NW 0,58 h 0,8 UV-I 83 W/m 5,3 km/h
05.02.2018 0,4 C 74 % 1026,1 hPa 0,0 l/m 5,9 km/h O-NO 4,75 h 1,2 UV-I 169 W/m 12,6 km/h
06.02.2018 -0,8 C 76 % 1015,1 hPa 0,0 l/m 5,7 km/h O-NO 2,25 h 0,9 UV-I 121 W/m 11,0 km/h
07.02.2018 -0,5 C 76 % 1017,1 hPa 0,0 l/m 2,6 km/h NO 2,00 h 1,0 UV-I 121 W/m 5,3 km/h
08.02.2018 -2,5 C 81 % 1020,3 hPa 0,0 l/m 3,2 km/h O 6,75 h 1,1 UV-I 190 W/m 6,5 km/h
09.02.2018 -1,2 C 77 % 1014,7 hPa 0,0 l/m 4,7 km/h O-SO 6,75 h 1,2 UV-I 201 W/m 9,8 km/h
10.02.2018 2,2 C 87 % 1014,1 hPa 0,0 l/m 3,9 km/h O 0,00 h 0,6 UV-I 54 W/m 9,8 km/h
11.02.2018 2,8 C 85 % 1002,1 hPa 1,2 l/m 7,8 km/h SW 0,08 h 0,9 UV-I 57 W/m 15,8 km/h
12.02.2018 1,6 C 87 % 1013,3 hPa 5,8 l/m 5,3 km/h SW 2,83 h 1,2 UV-I 158 W/m 10,1 km/h
13.02.2018 0,3 C 74 % 1013,8 hPa 0,0 l/m 6,0 km/h O 8,50 h 1,5 UV-I 260 W/m 17,0 km/h
14.02.2018 0,7 C 62 % 1017,6 hPa 0,0 l/m 11,0 km/h O 7,83 h 1,5 UV-I 256 W/m 20,2 km/h
15.02.2018 3,9 C 81 % 1014,3 hPa 0,4 l/m 5,4 km/h O-SO 0,00 h 0,7 UV-I 63 W/m 11,8 km/h
16.02.2018 3,4 C 79 % 1025,4 hPa 0,0 l/m 5,7 km/h SW 3,17 h 1,1 UV-I 154 W/m 11,0 km/h
17.02.2018 1,5 C 80 % 1024,6 hPa 0,0 l/m 3,3 km/h O 1,67 h 1,0 UV-I 133 W/m 6,1 km/h
18.02.2018 2,5 C 73 % 1026,1 hPa 0,0 l/m 5,6 km/h O 6,92 h 1,5 UV-I 245 W/m 11,4 km/h
19.02.2018 1,2 C 76 % 1019,3 hPa 0,0 l/m 2,9 km/h O 4,08 h 1,3 UV-I 184 W/m 7,7 km/h
20.02.2018 1,6 C 71 % 1020,1 hPa 0,0 l/m 3,8 km/h O-NO 7,00 h 1,4 UV-I 229 W/m 7,3 km/h
21.02.2018 0,6 C 73 % 1025,0 hPa 0,0 l/m 3,5 km/h NO 6,75 h 1,4 UV-I 236 W/m 8,5 km/h
22.02.2018 0,5 C 73 % 1024,3 hPa 0,0 l/m 4,6 km/h NO 7,92 h 1,5 UV-I 255 W/m 10,5 km/h
23.02.2018 -0,6 C 58 % 1023,8 hPa 0,0 l/m 8,4 km/h NO 8,08 h 1,5 UV-I 271 W/m 15,4 km/h
Min-Datum 08.02.18 14.02.18 03.01.18 22 Tage 01.01.18 - - - - 01.01.18
Min-Zeit 06:10 12:45 08:55 - 22:11 - - - - 22:45
Minimum -5,7 C 47 % 984,1 hPa - 0,5 km/h - - - - 0,5 km/h
Max-Datum 24.01.18 21.01.18 27.01.18 03.01.18 18.01.18 - 13.02.18 23.02.18 16.02.18 18.01.18
Max-Zeit 13:35 08:20 10:45 06:25 12:55 - 16:35 12:15 12:25 12:35
Maximum 14,2 C 97 % 1031,3 hPa 17,2 l/m 51,2 km/h
W-SW
- 8,42 h 2,3 UV-I 587 W/m 92,2 km/h
W-SW
Durchschnitt 3,6 C 82 % 1014,0 hPa #83,4 l/m 7,3 km/h SW #114:11 h 0,8 UV-I 104 W/m 15,2 km/h

Durchschnitt Minimum Temp.1,5 C
Durchschnitt Maximum Temp.6,1 C

Jahr Standard-Abweichung:   + 3,64 K
Jahr Normal Wert:    0,00 C
Eistage (Tmax < 0C) :0
Frosttage (Tmin < 0C) :17
Kalte Tage (Tmax < 10C) :47
Sommertage (Tmax >= 25C) :0
Heie Tage (Tmax >= 30C) :0

Regen Tage
> 0,0 l/m22
> 2,0 l/m13
> 20,0 l/m0
Jahr Standard-Abweichung:   + 83,4 l/m
Jahr Normal Wert:    0,0 l/m

VerteilungWindrichtung
Windstille9,7 %
N-NO1,5 %
NO8,1 %
O-NO11,0 %
O11,5 %
O-SO8,1 %
SO5,7 %
S-SO5,0 %
S5,2 %
S-SW7,4 %
SW13,7 %
W-SW12,7 %
W6,3 %
W-NW1,9 %
NW1,0 %
N-NW0,5 %
N0,4 %